Probability
3 2 1 1 2 4 3 3 5 7 8 8 9 9 9 7 6 6 6 6 6 6 6 6 6 5 4 3 3 2 1 1 0 0 0 0 0 0 0 0 0 0 0
4 3 3 3 4 4 3 3 4 5 6 6 6 7 7 6 5 5 4 4 5 5 4 4 4 4 3 3 3 2 2 2 1 0 0 0 0 0 0 0 0 0 0
5 5 4 4 4 5 5 4 4 4 4 4 4 4 4 4 3 3 3 3 4 3 2 1 2 2 3 3 2 2 3 3 2 1 0 1 1 0 0 0 0 0 0
5 5 4 4 5 6 7 7 5 4 4 4 4 3 3 2 1 1 1 2 2 1 1 0 0 1 2 2 1 1 3 3 3 3 2 2 1 0 0 0 0 1 1
4 4 3 4 6 7 8 8 7 6 6 6 5 4 4 3 1 0 0 1 1 0 0 0 0 0 1 1 0 1 2 2 3 4 4 2 1 0 0 0 0 1 2
3 3 3 4 5 6 7 7 7 7 8 8 7 6 5 3 1 0 0 0 0 0 0 0 0 0 0 0 0 0 1 1 2 4 4 1 0 0 0 0 0 1 1
3 3 3 3 4 5 6 6 7 7 8 9 9 8 6 4 1 0 0 0 0 0 0 0 0 0 0 0 0 1 1 1 1 3 2 1 1 1 2 1 1 1 1
3 3 3 3 3 4 5 6 6 7 7 8 9 9 7 4 1 0 0 0 0 0 0 0 0 0 0 0 0 1 2 1 1 1 1 1 2 2 2 2 2 2 2
2 3 3 3 3 3 4 5 6 6 6 7 8 8 6 3 1 0 0 0 0 0 0 0 0 0 0 0 0 1 1 1 0 0 0 1 1 1 1 2 3 3 3
1 1 2 3 3 3 3 4 6 6 6 6 7 6 6 4 2 0 0 0 0 0 0 0 0 0 0 0 0 0 0 0 0 0 0 1 1 1 1 1 3 3 3
0 0 1 2 3 3 3 4 6 6 6 6 6 6 6 5 3 1 0 0 0 0 1 1 0 0 0 0 0 0 0 0 0 0 0 1 2 2 2 2 3 3 3
0 0 0 1 2 3 3 4 5 6 6 6 6 6 6 6 3 1 0 0 0 1 1 0 0 0 0 0 0 0 0 0 0 0 0 1 2 3 3 3 3 3 3
0 0 0 0 1 1 2 3 3 4 5 6 6 6 6 5 3 1 0 0 0 0 0 0 0 0 0 0 0 0 0 0 0 0 0 0 1 3 3 3 3 3 3
0 0 0 0 0 0 1 1 1 2 3 3 3 3 4 4 2 1 0 0 0 0 0 0 1 1 1 0 0 0 0 0 0 0 0 0 1 2 3 3 3 3 3
0 0 0 0 0 0 0 0 0 1 1 1 1 1 1 1 1 0 0 0 0 0 0 1 2 2 2 1 0 0 0 0 0 0 0 1 1 1 2 3 3 3 3
0 0 0 0 0 0 0 0 0 0 0 0 0 0 0 0 0 0 0 0 0 0 1 2 3 3 3 2 1 1 0 0 0 0 1 2 2 2 3 3 3 2 1
0 0 0 0 0 0 0 0 0 0 0 0 0 0 0 0 0 0 0 0 0 0 1 2 3 3 3 3 3 2 1 0 0 0 1 2 3 3 3 3 2 1 0
0 0 0 0 0 0 0 0 0 1 1 1 1 0 0 0 0 0 0 0 0 0 0 1 2 2 3 3 3 3 2 1 0 0 1 2 3 3 2 2 1 0 0
0 0 0 0 0 0 0 0 0 1 2 2 2 1 0 0 0 0 0 0 0 0 0 0 1 1 1 2 2 3 3 2 1 0 1 2 2 1 1 1 0 0 0
0 0 0 0 0 0 0 0 1 2 3 3 3 2 1 0 0 0 0 0 0 0 0 0 0 0 0 1 1 1 2 2 1 0 0 1 1 0 0 0 0 0 0
0 0 0 0 0 0 0 0 1 2 3 3 3 2 1 0 0 0 0 0 0 0 0 0 0 0 0 0 0 0 1 1 1 0 0 0 0 0 0 0 0 0 0
0 0 0 0 0 0 0 0 1 2 3 3 3 1 0 0 0 0 0 0 0 0 0 0 0 0 0 0 0 0 0 0 0 0 0 0 0 0 0 0 0 0 0
0 0 0 0 0 0 0 0 0 1 3 3 3 1 0 0 0 0 0 0 0 0 0 0 0 0 0 0 0 0 0 0 0 0 0 0 0 0 0 0 0 0 0
0 0 0 0 0 0 0 0 0 1 2 3 3 2 1 0 0 0 0 0 0 0 0 0 0 0 0 0 0 0 0 0 0 0 0 0 0 0 0 0 0 0 0
0 0 0 0 0 0 0 0 0 0 1 3 3 3 2 1 0 0 0 0 0 0 0 0 0 0 0 0 0 0 0 0 0 0 0 0 0 0 1 0 0 0 0
0 0 0 0 0 0 0 0 0 0 1 2 3 3 2 1 0 0 0 0 0 0 0 0 0 0 0 0 0 0 0 0 0 0 1 1 1 0 1 0 0 0 0
Wind_Speed
2 1 1 1 1 1 1 1 1 1 1 1 1 1 1 0 0 1 1 0 1 0 0 1 1 1 1 1 1 2 2 2 2 2 1 1 1 2 1 1 2 2 2
2 2 1 1 1 1 0 0 0 0 0 1 0 0 1 1 1 1 1 0 1 1 1 1 1 1 2 1 2 2 2 2 2 2 1 1 1 2 1 1 1 1 2
2 2 1 1 1 1 1 0 0 0 0 0 0 1 1 1 1 1 1 1 1 2 2 2 2 2 2 2 2 2 2 2 2 2 2 1 1 1 1 1 1 1 2
2 2 2 2 2 2 1 1 1 1 1 1 1 1 2 1 1 1 1 1 1 1 2 2 3 3 3 3 3 3 2 2 2 2 2 1 1 1 1 1 1 1 1
3 2 3 2 2 1 1 0 0 1 1 1 1 1 1 2 2 2 2 2 2 2 1 2 2 3 4 3 3 3 3 2 2 2 2 1 1 2 2 2 2 1 2
2 2 1 1 1 1 1 1 0 1 1 1 1 2 2 2 2 2 2 2 2 2 2 2 2 2 3 3 4 5 5 4 4 3 2 3 3 3 2 2 2 1 2
2 1 1 1 1 1 1 0 1 1 1 1 2 1 2 3 2 2 3 2 2 3 3 2 2 2 2 2 3 4 4 5 6 5 4 5 4 4 3 3 3 3 3
2 2 2 2 2 1 1 1 1 1 1 2 2 2 2 2 2 2 2 2 2 2 2 2 2 3 3 3 2 2 3 4 5 5 5 6 5 4 5 4 3 2 2
2 2 2 2 2 1 1 1 1 1 1 2 2 2 2 3 2 1 2 1 1 2 2 2 2 3 3 3 3 3 3 3 4 5 6 5 5 5 4 3 3 2 2
1 1 1 2 2 2 2 1 1 1 1 1 1 1 2 2 1 1 2 1 1 1 2 2 3 3 3 2 3 3 4 4 2 2 2 2 3 3 5 5 5 4 2
0 0 0 1 1 1 1 1 1 0 0 0 1 1 1 2 1 1 2 2 2 2 2 2 2 3 3 3 3 3 5 4 2 2 2 2 1 2 3 4 4 4 4
1 1 1 1 0 1 1 0 0 1 0 0 1 1 1 1 1 1 2 3 2 2 3 3 3 3 4 4 3 3 4 3 2 2 2 2 2 2 2 3 4 4 4
2 1 1 1 1 1 1 0 0 0 1 1 1 1 2 1 1 2 3 3 4 2 2 4 4 4 4 2 2 3 2 2 2 2 2 2 2 2 2 1 2 2 3
1 1 1 1 1 1 0 0 0 1 1 1 1 1 2 2 2 1 1 1 2 2 3 3 3 3 2 2 2 1 1 2 2 3 2 2 2 1 1 1 1 1 1
1 1 0 0 0 0 0 1 1 2 3 3 2 2 2 2 3 3 2 2 2 2 1 1 1 1 1 1 1 1 1 1 2 2 2 2 2 2 2 1 1 1 2
1 1 1 0 0 0 0 1 1 1 2 3 3 3 2 4 4 3 4 4 3 3 1 2 2 2 3 2 2 2 2 2 2 2 2 2 2 2 2 1 2 2 3
2 2 1 1 1 1 1 1 2 2 2 2 3 3 3 3 4 4 3 3 2 2 2 2 3 3 3 3 3 3 3 2 2 2 3 2 2 2 2 2 2 2 3
2 2 1 1 1 1 1 1 1 1 2 3 3 3 3 3 3 3 2 1 1 1 2 3 3 2 3 3 3 3 3 3 2 2 3 3 3 2 2 3 3 3 3
2 1 1 1 1 1 1 1 1 1 1 2 2 2 3 3 2 2 1 1 2 2 2 2 2 2 2 2 2 2 3 2 2 2 3 3 3 3 3 3 3 3 3
2 2 1 1 1 1 1 1 1 1 1 1 1 2 1 1 1 1 1 2 2 3 3 3 2 2 2 2 2 2 2 2 2 3 3 3 3 3 3 4 3 3 3
1 1 1 1 1 1 1 1 1 1 2 2 2 2 2 1 1 2 2 2 3 3 3 3 2 2 2 1 2 2 3 2 3 3 3 3 3 3 3 3 3 3 3
1 1 1 1 1 1 1 1 1 2 2 3 2 2 2 1 1 2 2 2 3 2 2 2 2 2 2 2 2 2 3 3 3 3 3 3 3 3 3 3 3 3 3
2 2 1 1 1 1 1 1 2 2 2 3 2 1 1 1 2 2 2 2 2 2 2 2 2 2 2 2 2 3 3 4 4 4 4 4 3 3 3 4 4 4 4
2 2 2 2 1 2 2 2 2 2 3 3 2 2 2 2 2 3 3 2 2 2 2 2 2 3 4 3 3 3 3 4 4 4 5 4 4 3 3 3 3 4 3
2 2 2 2 2 2 2 2 2 2 2 2 3 3 3 2 2 3 2 2 2 2 2 2 2 3 4 4 3 3 3 3 3 3 4 4 4 4 4 3 3 3 3
3 3 3 2 3 3 3 3 3 3 2 3 3 3 3 2 2 2 2 2 2 2 2 2 3 3 4 4 4 3 3 3 3 3 3 3 3 3 3 3 3 3 3
Wind_Direction
157 145 133 148 145 137 146 215 200 185 171 188 233 209 216 220 151 141 200 195 177 206 207 186 217 179 179 159 159 164 169 169 207 253 247 259 234 250 255 238 220 214 223
167 152 171 165 130 134 171 260 163 153 178 192 205 184 213 193 155 159 204 212 202 224 239 224 237 202 199 180 182 190 187 187 193 234 249 239 237 236 238 231 224 226 240
154 154 163 188 164 176 202 211 188 131 353 272 197 221 234 212 174 183 201 220 215 224 224 220 230 212 215 210 200 200 201 193 193 204 240 236 239 219 212 242 228 250 254
149 168 196 212 198 194 195 185 189 196 229 257 245 238 230 211 207 215 213 229 234 242 233 226 224 218 219 218 212 208 197 187 183 197 236 243 230 212 198 225 255 248 267
164 186 212 211 191 172 163 170 202 226 251 254 259 266 251 216 217 217 224 232 235 254 261 251 241 237 228 215 210 205 195 194 187 198 226 236 226 208 216 216 229 264 268
169 200 203 171 153 171 188 186 207 262 273 256 262 261 256 251 248 233 222 228 227 231 252 267 267 261 243 232 225 211 199 198 202 202 217 228 238 231 215 208 201 216 257
176 193 195 191 200 216 213 183 247 271 270 259 266 262 258 261 252 241 222 212 220 228 235 246 263 272 251 243 243 240 233 228 211 205 219 231 230 220 206 211 212 217 233
188 194 197 206 225 240 211 219 250 252 251 262 276 276 269 264 239 228 212 201 218 234 241 240 245 267 262 238 229 237 243 241 229 222 226 237 238 223 207 209 209 222 255
207 211 203 197 203 214 238 252 246 246 266 261 260 266 272 282 275 202 165 177 220 261 269 262 253 257 264 240 216 229 253 265 251 230 230 238 242 227 198 175 183 197 247
235 234 205 189 193 213 229 234 244 228 250 261 278 282 275 281 286 196 156 170 225 272 282 275 267 262 265 242 228 226 246 265 272 269 252 249 243 234 208 203 201 204 223
280 90 117 156 186 202 207 220 231 221 258 319 316 322 308 293 293 241 174 176 214 253 274 281 282 277 269 261 242 237 245 256 267 262 268 267 250 230 220 216 214 210 216
91 91 75 37 59 111 128 251 241 176 156 296 305 313 316 318 305 267 222 213 216 231 260 274 284 286 274 268 253 254 258 256 243 245 253 257 249 243 232 223 219 220 226
82 69 66 53 42 70 134 126 12 215 196 237 245 265 293 301 291 264 242 235 233 231 257 271 286 290 284 274 265 265 254 236 222 224 240 250 251 247 237 222 212 220 244
94 64 64 58 38 38 50 175 191 218 226 227 233 249 271 288 290 288 282 260 245 248 265 281 289 288 277 273 284 273 251 231 223 231 239 251 257 246 236 222 210 194 228
132 145 152 135 127 35 341 255 229 234 221 209 220 217 225 261 270 255 249 263 252 244 248 257 264 263 265 280 281 269 245 222 225 235 235 239 241 242 250 230 211 199 212
150 174 197 213 225 201 345 336 317 259 260 238 232 223 235 241 265 261 260 266 272 250 219 237 245 240 240 249 255 262 255 245 243 242 239 236 233 234 241 231 219 213 227
185 205 215 226 232 238 222 248 309 333 343 303 272 264 261 276 280 274 267 273 282 221 226 242 245 246 245 242 239 244 252 255 244 239 241 240 234 232 232 236 234 232 237
186 196 197 219 233 233 228 236 250 280 313 321 319 296 291 290 293 299 307 0 324 257 248 251 253 251 248 246 240 240 245 248 237 235 238 237 230 228 231 236 235 238 247
194 206 210 224 233 230 236 245 269 284 291 308 332 341 338 325 324 324 295 234 262 271 264 261 259 257 256 256 257 254 250 251 248 238 236 235 229 223 230 237 237 242 247
217 229 215 207 225 222 218 233 254 267 279 288 296 305 338 14 1 350 308 269 265 268 270 267 264 263 262 262 263 258 254 256 250 243 243 238 229 222 226 236 237 236 243
212 233 237 203 215 223 222 228 240 250 261 270 276 277 261 257 288 296 287 276 270 268 272 276 280 277 272 265 262 259 258 259 255 248 244 244 238 234 233 234 235 237 242
188 199 211 220 225 228 231 229 234 253 265 271 285 292 256 258 284 293 292 290 283 274 269 270 274 275 271 262 261 264 265 264 261 254 247 241 235 235 235 234 236 238 239
182 198 211 225 223 233 236 241 242 252 262 268 268 275 276 278 283 285 288 293 295 294 290 276 274 285 288 281 273 263 263 263 260 253 248 245 238 231 228 232 235 239 241
191 203 216 222 219 226 240 248 246 249 257 262 259 252 254 258 267 276 280 285 289 293 294 286 280 287 293 293 282 268 263 266 262 250 240 239 238 234 225 226 230 233 239
202 209 217 224 225 233 242 250 254 256 256 256 253 251 253 257 264 271 274 273 271 274 280 281 283 282 285 291 294 290 288 276 262 253 237 231 230 228 222 219 220 224 226
208 214 217 222 225 228 233 240 249 253 253 251 246 246 249 254 261 267 271 273 270 269 272 275 286 291 293 291 297 303 300 292 273 252 233 219 215 217 214 214 215 215 210